INTELSAT 33E DEB, 64400

Orbit data source: Space-Track

INTELSAT 33E DEB, 64400 is space debris in GEO originally from a launch on Wed, 24 Aug 2016 UTC launched from the French Guiana (FRGUI). Debris objects in space refer to the collection of defunct objects orbiting the Earth. Examples of debris include non-operational satellites, rocket bodies, and fragments generated from explosions, collisions, or faulty payload assembly.

Not visible in the next 10 days
Identifier
64400, 2016-053AE
Orbit
GEO
Country
Flag of UnknownUnknown / ITSO
Related business
Manufacturer
Boeing/ES
Mission
Spacecraft
Bus & Motor
Unknown
Mass
Unknown
Launch date (UTC)
2016-08-24 (9 years ago)
Launch vehicle
Unknown
Launch site
French Guiana (FRGUI)
Object type
Payload
Rocket body
Debris
Shape & HBR
Unknown shape, 1.1 m
Radar Cross Section
RCS unknown

Expand to show TLE details & history
Last TLE update: 1 day ago

TLE from 1 day ago
0 INTELSAT 33E DEB
1 64400U 16053AE  25346.92589781 -.00000073  00000-0  00000-0 0  9999
2 64400   1.0188  82.0761 0373369 301.8337  53.6256  1.03345926  4233
Epoch: 2025-12-12T22:13Z
TLE epoch observation values (Epoch: 2025-12-12T22:13:17.570Z)
Latitude
-0°
Longitude
25.87237°
Altitude
34,065.076 km
Speed
3.173 km/s
True Right ascension
05h 24m 13s
True Declination
0° 00' 00"
Sunlit
Object was in daylight at epoch
Visualization orbit readout
Latitude
Unknown
Longitude
Unknown
Altitude
Unknown
Speed
Unknown
Apparent Right ascension
Unknown
Apparent Declination
Unknown
Sunlit
N/A
Visualization observer readout
Local Sidereal Time
23:32:34
Azimuth
Unknown
Elevation
Unknown
Doppler factor
Unknown
Orbital elements
Apogee altitude
36,490.293 km
Perigee altitude
33,404.364 km
Semi-major axis
41,325.465 km
Eccentricity
0.03734
Inclination
1.0188°
RAAN
82.0761°
Arg. of periapsis
301.8337°
True anomaly
57.16615°
Mean anomaly
53.6256°
Eccentric anomaly
55.3862°
Mean motion
0.25835 °/min
Orbital period
1,393.43 mins
BSTAR
0
Loading maneuver chart data...
Computing Atmospheric mass density...
Loading historical data...
Loading historical data...
Loading historical data...
Loading historical data...
Loading historical data...
Loading historical data...
Loading historical data...

Documentation

Showing up to 5 results
|